Wind_Speed
19 20 21 18 16 8 6 13 16 20 1 4 6 4 14 7 14 17 18 19 18 18 18 20 19 19 20 22 19 15 11 9 11 3 5 4 6 6 7 7 4 4 5 7
21 27 20 19 18 13 13 20 25 4 5 7 10 11 6 8 8 18 19 19 19 18 20 22 21 22 21 23 15 13 11 7 7 6 4 5 11 6 7 6 7 6 4 9
25 23 20 21 21 22 20 16 15 14 10 13 14 12 17 13 15 17 18 18 19 21 22 22 22 23 22 20 14 12 12 7 8 8 6 3 5 7 7 7 8 4 7 10
23 21 24 24 23 21 20 16 18 12 14 17 16 24 23 6 19 15 18 20 19 22 21 24 18 19 23 17 15 14 12 10 9 8 7 5 4 5 3 4 6 11 10 11
21 22 23 24 26 20 22 20 21 22 15 21 22 24 18 16 10 18 17 20 20 22 23 27 23 15 22 16 10 13 14 12 11 9 8 8 7 6 3 5 5 6 17 12
21 21 14 17 22 18 20 23 22 22 23 19 22 25 13 13 6 26 8 28 22 25 26 26 26 21 19 22 13 12 12 11 10 11 8 8 9 6 8 3 2 2 16 17
16 19 21 18 19 18 18 20 22 19 18 15 22 24 26 17 13 18 9 20 20 22 25 25 29 24 24 25 24 13 10 11 10 10 9 9 9 9 5 5 5 3 6 12
20 19 20 22 20 20 20 20 20 15 14 20 25 26 13 15 7 17 3 17 18 17 21 25 30 30 28 26 29 18 11 11 10 9 9 8 9 10 6 8 8 7 6 5
17 21 14 12 12 13 16 23 22 28 27 22 27 28 15 14 12 19 7 10 14 12 13 23 26 32 29 30 27 16 13 13 11 9 8 7 7 8 7 6 8 9 9 8
12 18 15 13 7 16 21 20 22 23 17 17 23 27 27 9 6 11 10 5 9 5 10 21 28 29 32 33 29 18 16 15 12 11 8 7 6 7 7 8 8 11 12 8
10 14 15 14 17 15 19 19 20 24 25 14 11 19 17 15 4 4 2 9 7 4 7 16 27 26 33 33 35 25 20 20 19 15 11 7 7 9 10 10 10 11 11 11
12 12 14 18 13 14 19 18 22 21 23 27 28 28 22 17 11 8 7 9 5 5 3 9 23 26 32 37 38 29 23 24 20 17 13 12 11 11 12 11 10 10 10 12
9 9 17 15 8 15 8 10 16 24 24 23 17 23 21 11 4 4 4 5 6 8 5 9 15 26 31 33 37 38 27 25 23 21 18 17 17 17 13 12 11 9 9 10
14 15 18 22 28 17 17 18 18 20 18 21 24 22 21 19 16 9 7 9 9 5 4 10 14 23 30 34 35 37 36 26 26 26 23 22 21 20 16 15 14 10 9 9
12 14 15 20 21 22 22 19 25 25 23 23 26 23 22 21 20 10 6 4 5 5 10 10 15 19 29 34 39 40 38 35 30 30 28 25 24 22 21 18 15 13 11 11
14 19 17 19 19 20 21 20 24 28 28 27 26 27 22 23 21 8 9 8 10 12 22 26 17 20 28 35 41 44 42 36 35 33 31 28 26 25 25 21 18 16 14 13
17 18 18 21 18 19 21 19 21 23 22 27 27 26 27 13 16 14 13 14 17 26 27 23 19 19 28 34 40 38 38 36 36 35 34 32 27 28 28 24 20 19 17 16
21 20 19 22 19 18 20 16 18 23 21 18 20 21 18 14 11 10 8 7 9 19 15 17 10 23 22 29 35 34 33 35 36 38 37 34 31 32 30 28 25 21 19 17
18 19 21 23 23 24 22 17 16 14 13 12 16 19 17 11 7 8 8 4 8 16 10 9 10 16 19 27 34 37 31 36 37 38 37 36 34 33 34 29 24 21 19 19
10 15 20 19 21 19 22 19 16 13 19 11 10 18 19 27 32 34 19 15 16 13 12 12 9 9 21 26 34 40 37 33 40 38 38 40 36 34 33 26 24 21 20 21
17 16 18 21 23 23 17 17 17 13 11 8 7 6 9 9 13 11 11 8 22 19 12 11 10 10 12 23 36 39 37 36 34 38 42 40 36 33 31 28 29 23 21 21
18 20 22 23 24 24 11 12 13 12 12 10 8 6 4 6 4 10 9 11 16 13 11 9 11 16 19 25 28 25 28 33 32 35 38 38 35 33 36 34 33 26 23 20
20 20 25 24 29 23 14 13 15 15 15 18 15 16 9 8 13 17 12 6 15 17 11 7 7 11 18 22 20 23 22 24 32 31 32 35 35 37 38 33 29 26 25 20
22 21 25 28 28 28 27 22 24 20 19 18 19 21 18 14 15 17 22 21 15 23 14 9 8 10 12 18 23 27 28 28 31 32 33 35 35 39 37 33 29 28 25 21
22 23 27 32 28 26 24 25 22 24 24 18 14 19 20 19 18 19 27 23 25 22 32 14 8 11 12 14 15 19 23 25 28 30 33 33 36 36 35 33 29 29 27 23
25 29 31 36 30 31 35 30 27 23 21 25 19 17 19 22 21 27 25 22 25 29 27 38 23 16 16 14 16 19 16 20 24 29 31 29 34 34 37 32 27 27 27 25
Wind_Direction
245 251 253 261 274 238 188 210 259 254 266 277 308 280 201 236 196 199 197 199 201 200 204 211 198 214 190 225 226 238 216 226 214 287 215 206 180 188 200 244 286 274 260 201
246 246 250 262 270 218 201 259 255 330 344 289 298 296 145 204 240 205 204 200 202 202 204 201 226 206 199 219 227 217 227 206 209 209 192 204 176 220 244 229 267 261 236 190
244 249 250 251 270 267 283 285 299 313 327 294 310 274 245 234 212 206 211 207 203 205 201 207 214 200 210 213 231 208 213 203 204 222 224 161 160 224 252 251 251 232 183 182
247 252 255 261 250 272 280 275 288 307 309 295 284 290 183 318 213 210 216 208 210 208 205 222 219 202 208 221 222 216 212 217 214 213 218 222 215 231 266 284 279 221 205 190
251 247 253 259 257 272 273 274 281 290 288 295 288 287 161 146 8 220 224 216 210 217 207 221 224 221 205 226 214 223 216 220 223 228 215 226 237 240 262 297 307 263 200 195
255 253 273 261 258 267 266 270 277 281 281 278 277 278 254 187 186 202 346 184 200 212 210 210 232 216 211 225 229 218 204 201 206 219 223 224 245 260 251 272 308 343 202 213
247 257 254 254 268 266 266 260 264 258 259 256 265 259 272 177 110 235 190 174 186 205 225 206 219 216 214 212 240 227 204 196 196 196 205 209 229 248 262 287 308 288 210 224
281 252 238 236 245 258 259 253 254 260 260 269 274 272 314 155 166 256 192 160 182 186 217 236 207 219 218 215 228 233 215 204 196 197 193 195 208 233 256 260 270 271 272 265
298 280 281 255 237 241 260 258 264 281 281 275 279 286 269 257 292 289 260 206 172 187 205 235 226 214 221 227 230 234 213 206 201 201 211 214 213 228 243 258 273 287 291 288
286 293 278 278 264 252 262 267 281 266 262 271 285 290 294 247 208 205 191 180 166 161 195 222 233 212 217 226 237 232 212 212 211 214 218 227 231 244 250 257 265 278 297 315
301 284 279 267 258 262 261 239 250 265 275 290 286 260 259 18 126 161 115 124 105 132 189 211 232 232 221 229 236 237 215 215 218 220 217 228 244 248 253 252 253 264 287 292
313 306 292 287 288 270 248 256 263 251 243 260 276 287 288 323 317 338 245 358 214 144 204 225 226 234 230 232 237 242 224 220 227 233 233 237 251 259 259 259 255 261 262 268
315 290 315 289 352 344 336 316 304 270 280 285 280 271 276 310 316 304 309 253 264 258 225 231 223 231 237 241 239 246 236 225 232 241 246 248 253 260 269 264 255 256 252 261
298 279 274 281 299 309 320 285 301 315 283 281 275 284 290 306 330 300 269 247 239 235 240 233 224 233 239 242 246 246 248 234 235 243 248 252 253 257 260 268 254 257 267 273
286 280 277 282 289 290 286 279 279 283 287 291 289 298 295 300 308 330 320 336 304 278 246 246 267 225 238 242 245 248 253 242 238 244 249 251 251 252 254 258 255 258 263 267
276 281 287 286 284 279 278 276 272 275 275 276 273 275 279 277 284 298 291 300 285 283 276 263 242 244 233 241 238 247 252 249 238 241 250 252 247 249 251 253 251 254 255 267
271 275 284 286 290 291 284 277 278 283 270 259 269 271 304 264 254 260 269 280 281 278 271 275 235 234 230 241 249 248 245 246 241 243 247 247 244 247 248 250 251 250 250 257
260 263 269 275 284 275 281 286 287 287 283 269 272 285 290 249 273 254 204 229 273 281 282 270 273 217 228 235 249 251 237 235 239 243 245 245 244 246 246 248 248 254 255 259
253 254 262 267 270 277 280 281 286 308 295 301 303 304 294 260 181 130 191 206 291 272 274 312 300 230 206 233 246 258 250 234 234 240 244 249 248 245 246 251 250 253 261 259
255 247 249 257 264 277 284 298 314 303 292 306 347 337 302 262 257 336 323 275 284 305 274 263 264 264 210 220 240 253 260 243 237 239 244 249 249 244 244 245 246 257 248 252
267 254 259 268 265 269 277 281 295 280 289 337 346 17 16 346 311 312 333 336 273 293 276 280 248 195 227 224 234 247 254 249 246 242 244 246 243 234 238 236 238 252 247 256
264 267 268 269 264 269 287 278 279 287 298 296 311 294 264 251 248 302 336 346 299 278 274 267 259 248 221 225 240 253 256 254 246 244 246 242 237 234 235 244 249 252 242 260
264 262 270 268 268 264 292 293 289 274 297 285 292 284 295 283 287 262 262 308 314 276 276 271 274 250 243 253 254 252 256 253 243 247 248 247 238 230 234 251 247 242 244 272
273 275 280 277 268 272 281 281 279 285 283 282 281 269 269 293 292 291 281 270 271 285 283 260 268 276 266 249 247 258 255 253 250 244 242 241 235 234 236 247 237 242 250 265
269 275 272 272 274 278 280 281 280 270 263 257 256 275 273 278 292 284 276 276 267 273 271 288 300 303 283 281 270 265 256 252 252 247 243 238 239 234 244 247 241 245 255 264
266 269 271 275 275 272 269 266 257 274 282 250 264 264 273 279 278 282 281 280 267 262 265 264 283 307 296 291 274 269 269 256 250 249 247 236 242 238 244 247 244 249 263 268
Height
3167 3168 3165 3163 3162 3167 3165 3165 3161 3156 3162 3162 3161 3160 3154 3158 3162 3164 3164 3166 3166 3169 3171 3173 3174 3176 3180 3179 3180 3179 3180 3180 3182 3185 3189 3189 3189 3190 3191 3191 3190 3192 3194 3196
3165 3162 3163 3162 3161 3159 3160 3158 3153 3157 3159 3158 3156 3156 3158 3157 3160 3162 3163 3162 3165 3167 3169 3171 3171 3174 3175 3177 3177 3179 3179 3180 3183 3185 3186 3187 3185 3188 3190 3190 3191 3191 3192 3194
3160 3160 3160 3160 3159 3158 3155 3154 3154 3154 3154 3154 3152 3151 3153 3160 3160 3162 3163 3162 3163 3164 3167 3167 3168 3171 3172 3174 3174 3177 3178 3180 3183 3185 3185 3186 3185 3188 3190 3189 3189 3190 3191 3194
3158 3158 3157 3155 3156 3156 3154 3154 3153 3153 3154 3151 3149 3143 3143 3143 3155 3163 3164 3159 3162 3164 3165 3164 3166 3168 3170 3171 3173 3175 3177 3179 3181 3184 3185 3185 3187 3189 3189 3188 3187 3189 3191 3193
3156 3155 3155 3154 3154 3155 3154 3154 3153 3152 3152 3150 3148 3143 3138 3150 3144 3153 3161 3159 3159 3161 3164 3162 3163 3166 3169 3169 3172 3173 3175 3177 3179 3181 3184 3186 3187 3187 3187 3187 3186 3187 3189 3192
3153 3152 3152 3152 3152 3153 3155 3154 3153 3152 3150 3149 3146 3142 3137 3141 3138 3145 3145 3145 3151 3155 3157 3162 3162 3164 3167 3169 3170 3171 3173 3175 3177 3179 3181 3183 3184 3185 3185 3186 3186 3186 3188 3190
3150 3150 3150 3152 3152 3153 3152 3152 3150 3149 3147 3143 3140 3137 3133 3133 3134 3142 3136 3138 3146 3153 3154 3157 3160 3162 3165 3168 3167 3169 3171 3173 3175 3177 3179 3181 3183 3183 3184 3185 3185 3186 3187 3189
3145 3143 3143 3146 3149 3150 3149 3150 3147 3146 3143 3138 3134 3132 3134 3134 3137 3142 3131 3135 3143 3148 3149 3150 3155 3159 3162 3165 3166 3167 3170 3172 3174 3176 3178 3179 3181 3182 3183 3185 3185 3185 3185 3187
3146 3143 3141 3144 3144 3148 3148 3147 3147 3143 3140 3137 3135 3132 3134 3130 3128 3138 3140 3141 3141 3144 3146 3148 3151 3155 3157 3160 3161 3164 3168 3170 3172 3174 3176 3178 3179 3181 3182 3184 3183 3182 3184 3185
3150 3146 3143 3142 3143 3146 3147 3147 3146 3142 3141 3140 3137 3134 3131 3131 3130 3138 3137 3139 3137 3141 3144 3146 3147 3152 3154 3156 3158 3161 3165 3168 3171 3172 3174 3177 3178 3179 3180 3182 3183 3182 3181 3184
3149 3147 3145 3143 3141 3141 3142 3142 3144 3144 3139 3134 3133 3132 3131 3133 3135 3132 3132 3134 3137 3138 3142 3146 3146 3148 3151 3153 3154 3157 3161 3165 3167 3169 3172 3174 3176 3177 3178 3179 3180 3180 3180 3181
3149 3146 3143 3139 3137 3138 3136 3138 3138 3135 3138 3137 3136 3131 3129 3134 3133 3131 3130 3138 3137 3137 3141 3145 3146 3147 3148 3150 3151 3152 3157 3161 3164 3167 3170 3172 3173 3174 3175 3177 3178 3178 3177 3176
3150 3148 3144 3139 3138 3136 3136 3136 3136 3134 3131 3130 3131 3130 3129 3131 3132 3132 3133 3135 3132 3134 3139 3144 3147 3145 3146 3147 3149 3149 3152 3157 3161 3163 3166 3168 3169 3171 3172 3174 3174 3173 3173 3173
3150 3149 3147 3143 3137 3142 3139 3137 3137 3134 3132 3130 3129 3129 3129 3129 3130 3128 3129 3130 3131 3132 3137 3141 3144 3145 3144 3144 3145 3146 3148 3153 3157 3159 3162 3164 3166 3167 3169 3170 3169 3170 3170 3170
3148 3146 3144 3142 3140 3139 3138 3138 3135 3135 3133 3131 3129 3128 3128 3128 3128 3127 3126 3129 3129 3129 3132 3136 3139 3141 3141 3141 3141 3143 3144 3148 3152 3154 3156 3159 3161 3162 3164 3165 3165 3167 3167 3166
3145 3143 3142 3140 3139 3136 3134 3134 3134 3132 3131 3129 3129 3127 3128 3126 3126 3124 3125 3126 3125 3125 3127 3129 3133 3136 3136 3135 3137 3137 3139 3141 3146 3148 3151 3153 3155 3157 3159 3161 3162 3163 3163 3163
3142 3141 3140 3137 3136 3133 3132 3130 3128 3125 3125 3125 3125 3124 3123 3119 3121 3120 3120 3121 3120 3120 3121 3124 3125 3130 3131 3130 3130 3131 3132 3136 3139 3142 3145 3146 3150 3151 3154 3157 3158 3158 3159 3159
3137 3137 3138 3134 3134 3130 3127 3125 3123 3121 3119 3118 3119 3118 3114 3120 3119 3117 3114 3114 3116 3117 3117 3118 3119 3121 3126 3126 3122 3122 3125 3129 3132 3136 3137 3140 3143 3145 3148 3150 3152 3154 3155 3155
3132 3133 3132 3131 3128 3125 3123 3122 3120 3118 3116 3117 3117 3109 3112 3111 3113 3094 3101 3106 3111 3111 3113 3115 3115 3116 3117 3120 3117 3116 3118 3122 3125 3128 3130 3133 3137 3140 3142 3145 3148 3149 3150 3150
3127 3127 3128 3127 3125 3122 3120 3118 3118 3116 3115 3116 3113 3106 3106 3109 3106 3101 3103 3112 3112 3109 3108 3107 3108 3111 3112 3114 3112 3111 3112 3115 3118 3121 3124 3126 3130 3134 3137 3141 3143 3145 3145 3144
3123 3123 3123 3120 3118 3119 3118 3117 3116 3115 3116 3113 3113 3112 3108 3107 3109 3114 3109 3103 3109 3106 3105 3104 3103 3105 3108 3108 3106 3106 3106 3107 3112 3113 3116 3121 3123 3128 3132 3134 3136 3137 3139 3139
3120 3121 3118 3116 3115 3115 3112 3113 3116 3112 3109 3109 3110 3110 3109 3111 3111 3110 3105 3105 3101 3102 3101 3098 3099 3100 3099 3101 3100 3099 3099 3102 3104 3107 3108 3112 3115 3120 3122 3122 3126 3130 3131 3133
3116 3117 3115 3115 3110 3109 3112 3111 3109 3105 3106 3104 3104 3104 3105 3107 3106 3104 3104 3104 3101 3098 3096 3095 3094 3096 3097 3096 3095 3094 3093 3095 3096 3100 3106 3107 3109 3112 3115 3119 3121 3122 3123 3125
3109 3109 3107 3106 3106 3105 3104 3104 3103 3102 3101 3100 3099 3094 3094 3096 3096 3095 3094 3096 3096 3093 3092 3091 3090 3090 3091 3091 3090 3092 3089 3089 3091 3093 3094 3098 3101 3102 3106 3110 3113 3115 3119 3119
3105 3103 3099 3095 3097 3098 3099 3098 3098 3094 3092 3093 3090 3089 3089 3089 3089 3087 3085 3087 3089 3088 3086 3086 3083 3084 3085 3086 3085 3085 3084 3084 3084 3085 3088 3090 3094 3098 3103 3104 3107 3111 3113 3114
3097 3094 3093 3088 3091 3089 3087 3087 3087 3086 3085 3085 3084 3083 3083 3082 3082 3080 3079 3079 3080 3081 3080 3080 3081 3077 3080 3079 3079 3079 3079 3077 3078 3079 3082 3085 3089 3094 3095 3097 3100 3104 3108 3108